User: anonymous   Login
Location: Chanteloup
(48.8560°N, 2.7390°E)
Time: 02:44:04
(UTC+00:00)
Language:

COSMO-SKYMED 1 - Orbit

View from above orbital plane
View from above orbital plane
View from above satellite
View from above satellite

Ground track
Ground track

The orbit data is extracted from the following two-line orbital elements,

1 31598U 07023A   22020.55376673  .00000573  00000-0  78459-4 0  9998
2 31598  97.8805 206.3562 0001455  96.6841 263.4536 14.82160364791054
Epoch (UTC): 20 January 2022 13:17:25
Eccentricity: 0.0001455
inclination: 97.8805°
perigee height: 621 km
apogee height: 623 km
right ascension of ascending node: 206.3562°
argument of perigee: 96.6841°
revolutions per day: 14.82160364
mean anomaly at epoch: 263.4536°
orbit number at epoch: 79105

The dashed part of the orbit path shows where the satellite is in the earth's shadow,  

DLR